Location: Central Coast
(33.3208°S, 151.2336°E)
Time: 18:53:10
(UTC+11:00)

Amateur Radio Satellites - All Passes

Search period start: 24 October 2017 18:23
Search period end: 25 October 2017 18:23
Location: Central Coast, 33.3208°S, 151.2336°E

Satellite Date Start Highest point End Downlink Frequencies (MHz)
Time Altitude Azimuth
JUGNU 24 Oct 18:25:12 18:29:39 22° 0° (N) 18:34:07 437.505
DOVE 4 24 Oct 18:26:12 18:30:25 49° 254° (WSW) 18:34:27 437.250
HO-68 24 Oct 18:30:13 18:32:45 12° 89° (E) 18:35:18 435.675
CUTE-I 24 Oct 18:37:46 18:42:39 35° 82° (E) 18:47:27 437.470
XW-2C 24 Oct 18:42:31 18:46:20 50° 81° (E) 18:50:05 145.795 - 145.815
AO-7 24 Oct 18:57:49 19:00:47 12° 231° (SW) 19:03:45 .
STRAND 1 24 Oct 19:02:57 19:07:36 36° 109° (ESE) 19:12:17 437.568
SRMSAT 24 Oct 19:08:41 19:12:13 16° 12° (NNE) 19:15:46 437.500
STARS 24 Oct 19:10:48 19:13:05 14° 274° (W) 19:15:22 437.465
KAITUO 1B 24 Oct 19:14:39 19:18:32 82° 260° (W) 19:22:20 145.475/437.950
NUDT-PHONESAT 24 Oct 19:21:55 19:25:44 67° 257° (WSW) 19:29:29 437.300
XW-2F 24 Oct 19:23:44 19:27:29 45° 255° (WSW) 19:31:09 145.980 - 146.000
SEEDS 24 Oct 19:26:45 19:29:47 19° 86° (E) 19:32:47 437.485
CUTE 1.7 + AOD 2 24 Oct 19:26:59 19:30:54 33° 83° (E) 19:34:46 437.475
nSIGHT-1 24 Oct 19:28:38 19:31:18 23° 51° (NE) 19:34:00 .
PCSat 24 Oct 19:30:01 19:35:25 84° 66° (ENE) 19:40:53 145.827
CUBEBUG 2 24 Oct 19:34:16 19:37:44 22° 84° (E) 19:41:14 437.445
LilacSat-2 24 Oct 19:38:11 19:41:30 26° 252° (WSW) 19:44:46 437.200
XW-2D 24 Oct 19:39:53 19:43:10 26° 252° (WSW) 19:46:23 145.860 - 145.880
XW-2A 24 Oct 19:51:53 19:54:19 18° 85° (E) 19:56:43 145.665 - 145.685
XW-2B 24 Oct 19:53:56 19:56:41 19° 250° (WSW) 19:59:25 145.730 - 145.750
RS-15 24 Oct 20:01:44 20:11:12 29° 136° (SE) 20:20:56 29.354- 29.394
UWE-3 24 Oct 20:03:18 20:07:05 27° 83° (E) 20:10:56 435.000/436.395/437.385
ISS 24 Oct 20:11:25 20:14:43 68° 46° (NE) 20:18:03 437.550
HO-68 24 Oct 20:13:57 20:21:13 89° 60° (ENE) 20:28:23 435.675
JUGNU 24 Oct 20:14:06 20:18:02 18° 350° (N) 20:21:59 437.505
FO-29 24 Oct 20:15:38 20:22:45 40° 110° (ESE) 20:29:31 435.910
CUTE-I 24 Oct 20:18:10 20:22:26 25° 248° (WSW) 20:26:41 437.470
NO-84 24 Oct 20:33:55 20:34:54 11° 144° (SE) 20:35:53 435.350 FM
AO-73 24 Oct 20:42:36 20:46:44 35° 82° (E) 20:50:51 145.935
STRAND 1 24 Oct 20:42:54 20:46:47 22° 275° (W) 20:50:43 437.568
SRMSAT 24 Oct 20:56:14 21:00:45 22° 3° (N) 21:05:16 437.500
SEEDS 24 Oct 21:01:44 21:05:25 28° 252° (WSW) 21:09:04 437.485
CUTE 1.7 + AOD 2 24 Oct 21:03:34 21:06:25 17° 249° (WSW) 21:09:14 437.475
nSIGHT-1 24 Oct 21:04:43 21:07:30 25° 217° (SW) 21:10:20 .
ZACube-1 24 Oct 21:06:59 21:11:29 79° 77° (ENE) 21:16:01 437.345
YUBILEINY 24 Oct 21:08:09 21:16:53 66° 88° (E) 21:25:39 435.215
CUBEBUG 2 24 Oct 21:10:33 21:14:14 26° 252° (WSW) 21:17:59 437.445
AAUSAT CUBESAT 2 24 Oct 21:12:26 21:16:31 50° 255° (WSW) 21:20:31 437.432
PCSat 24 Oct 21:17:07 21:19:28 13° 229° (SW) 21:21:51 145.827
XW-2A 24 Oct 21:24:20 21:26:52 19° 251° (WSW) 21:29:23 145.665 - 145.685
Oscar 11 24 Oct 21:36:31 21:40:58 80° 257° (WSW) 21:45:20 .
UWE-3 24 Oct 21:39:53 21:43:21 23° 251° (WSW) 21:46:52 435.000/436.395/437.385
PRISM 24 Oct 21:41:51 21:44:41 18° 111° (ESE) 21:47:33 437.425
ISS 24 Oct 21:49:45 21:51:31 13° 210° (SSW) 21:53:17 437.550
UNISAT 6 24 Oct 21:53:27 21:57:43 63° 104° (ESE) 22:02:00 437.425
FO-29 24 Oct 22:00:28 22:07:36 38° 278° (W) 22:14:28 435.910
DELFI C3 24 Oct 22:01:07 22:04:48 35° 82° (E) 22:08:25 145.870
Max Valier Satellite 24 Oct 22:02:09 22:05:17 24° 84° (E) 22:08:24 145.860
HO-68 24 Oct 22:04:16 22:07:55 15° 238° (WSW) 22:11:33 435.675
TIGRISAT 24 Oct 22:06:59 22:11:18 84° 104° (ESE) 22:15:38 435.000
NO-84 24 Oct 22:09:01 22:12:29 74° 310° (NW) 22:16:12 435.350 FM
RS-15 24 Oct 22:13:18 22:24:46 80° 295° (WNW) 22:36:46 29.354- 29.394
AO-73 24 Oct 22:19:37 22:22:38 18° 249° (WSW) 22:25:40 145.935
SRMSAT 24 Oct 22:45:05 22:49:19 20° 352° (N) 22:53:31 437.500
YUBILEINY 24 Oct 23:07:40 23:14:15 23° 251° (WSW) 23:20:54 435.215
BEESAT 2 24 Oct 23:09:40 23:12:44 23° 69° (ENE) 23:15:48 435.950
BEESAT 3 24 Oct 23:15:15 23:18:59 68° 241° (WSW) 23:22:47 437.485
EO-88 24 Oct 23:15:42 23:19:15 42° 255° (WSW) 23:22:46 145.990 - 145.960
PRISM 24 Oct 23:16:00 23:19:41 30° 278° (W) 23:23:25 437.425
EO-79 24 Oct 23:33:24 23:37:05 30° 108° (ESE) 23:40:48 145.935-145.965
Max Valier Satellite 24 Oct 23:36:22 23:38:52 17° 250° (WSW) 23:41:22 145.860
DELFI C3 24 Oct 23:37:12 23:39:10 13° 248° (WSW) 23:41:07 145.870
POLYITAN 1 24 Oct 23:39:13 23:43:03 35° 107° (ESE) 23:46:55 437.675
AO-85 24 Oct 23:40:32 23:45:33 43° 67° (ENE) 23:50:36 145.980
AIST 2D 24 Oct 23:46:21 23:49:46 50° 280° (W) 23:53:17 435.315
LO-87 24 Oct 23:51:10 23:54:42 51° 80° (E) 23:58:11 145.935 - 145.965
NANOSAT C BR1 24 Oct 23:58:12 00:02:18 53° 105° (ESE) 00:06:26 145.865
QB50P2 24 Oct 23:59:25 00:03:37 73° 102° (ESE) 00:07:53 145.880/145.840
DUCHIFAT 1 25 Oct 00:06:23 00:10:30 58° 104° (ESE) 00:14:40 145.980
SPROUT 25 Oct 00:08:47 00:09:22 10° 88° (E) 00:09:57 437.525
ESTCUBE 1 25 Oct 00:17:15 00:21:51 71° 79° (E) 00:26:23 437.505/2401.250
M-CUBED/EXP-1 PRIME 25 Oct 00:23:37 00:24:46 11° 121° (ESE) 00:25:56 437.505
RS-15 25 Oct 00:29:46 00:35:28 15° 279° (W) 00:41:18 29.354- 29.394
SRMSAT 25 Oct 00:36:03 00:37:48 11° 343° (NNW) 00:39:32 437.500
BEESAT 2 25 Oct 00:47:15 00:50:19 22° 235° (SW) 00:53:24 435.950
Oscar 19 25 Oct 00:52:49 00:57:02 26° 111° (ESE) 01:01:19 437.125/150
EO-79 25 Oct 01:10:00 01:12:50 17° 275° (W) 01:15:41 145.935-145.965
POLYITAN 1 25 Oct 01:16:30 01:18:53 15° 274° (W) 01:21:18 437.675
AO-85 25 Oct 01:21:49 01:26:09 24° 232° (SW) 01:30:28 145.980
VELOX 1 25 Oct 01:24:00 01:28:25 59° 79° (E) 01:32:45 145.980
BUGSAT 1 25 Oct 01:32:06 01:36:04 52° 280° (W) 01:40:04 437.445
SPROUT 25 Oct 01:41:18 01:45:29 51° 255° (WSW) 01:49:38 437.525
M-CUBED/EXP-1 PRIME 25 Oct 01:53:56 01:58:26 73° 286° (WNW) 02:03:09 437.505
Gurwin Techsat 1B 25 Oct 01:58:18 02:03:38 81° 105° (ESE) 02:09:02 435.225
AO-7 25 Oct 02:05:20 02:11:26 23° 122° (ESE) 02:17:34 .
DX 1 25 Oct 02:16:07 02:20:24 51° 80° (E) 02:24:37 434.975-435.025
UKube-1 25 Oct 02:30:44 02:34:57 46° 80° (E) 02:39:05 .
Oscar 19 25 Oct 02:31:38 02:36:10 31° 277° (W) 02:40:46 437.125/150
50 SAT 25 Oct 02:34:31 02:37:45 54° 256° (WSW) 02:40:56 437.505
ISS 25 Oct 02:43:30 02:45:26 14° 149° (SSE) 02:47:22 437.550
SO-50 25 Oct 02:54:58 02:59:27 44° 123° (ESE) 03:03:50 436.795
VELOX 1 25 Oct 03:03:26 03:04:15 10° 245° (WSW) 03:05:05 145.980
ITAMSAT 1 25 Oct 03:13:51 03:18:35 36° 110° (ESE) 03:23:20 435.822/435.867
nSIGHT-1 25 Oct 03:34:27 03:37:40 47° 139° (SE) 03:40:49 .
ITUPSAT 1 25 Oct 03:46:56 03:51:26 37° 81° (E) 03:55:52 437.325
DX 1 25 Oct 03:54:29 03:56:03 12° 245° (WSW) 03:57:38 434.975-435.025
AO-7 25 Oct 03:55:01 04:03:21 72° 285° (WNW) 04:11:47 .
BEESAT 25 Oct 03:59:10 04:03:53 53° 79° (E) 04:08:34 436.000
UKube-1 25 Oct 04:08:31 04:10:29 13° 246° (WSW) 04:12:26 .
MOZHAYETS 4 25 Oct 04:11:44 04:16:27 90° 56° (ENE) 04:21:07
ISS 25 Oct 04:18:54 04:22:11 59° 314° (NW) 04:25:25 437.550
PCSat 25 Oct 04:22:33 04:27:13 28° 124° (ESE) 04:31:51 145.827
CUBESAT XI-V 25 Oct 04:35:23 04:39:39 32° 83° (E) 04:43:49 437.345
SO-50 25 Oct 04:36:46 04:39:29 15° 288° (WNW) 04:42:10 436.795
ITAMSAT 1 25 Oct 04:54:00 04:58:03 23° 276° (W) 05:02:07 435.822/435.867
KKS-1 25 Oct 05:07:09 05:10:02 17° 86° (E) 05:12:55 437.445
nSIGHT-1 25 Oct 05:12:24 05:13:34 12° 306° (NW) 05:14:45 .
XW-2C 25 Oct 05:21:02 05:23:00 14° 111° (ESE) 05:25:01 145.795 - 145.815
ITUPSAT 1 25 Oct 05:25:32 05:28:55 19° 247° (WSW) 05:32:17 437.325
DOVE 4 25 Oct 05:25:44 05:31:01 87° 282° (WNW) 05:36:10 437.250
STARS 25 Oct 05:29:12 05:29:28 10° 88° (E) 05:29:45 437.465
BEESAT 25 Oct 05:38:43 05:41:08 14° 245° (WSW) 05:43:33 436.000
KAITUO 1B 25 Oct 05:50:39 05:53:40 23° 108° (ESE) 05:56:44 145.475/437.950
CUTE-I 25 Oct 05:55:19 06:00:16 38° 109° (ESE) 06:05:14 437.470
NUDT-PHONESAT 25 Oct 05:56:52 06:00:00 26° 108° (ESE) 06:03:11 437.300
XW-2F 25 Oct 05:59:53 06:03:27 41° 106° (ESE) 06:07:06 145.980 - 146.000
PCSat 25 Oct 06:05:44 06:10:34 33° 288° (WNW) 06:15:22 145.827
CUBESAT XI-V 25 Oct 06:13:12 06:16:45 21° 249° (WSW) 06:20:16 437.345
LilacSat-2 25 Oct 06:14:48 06:18:37 80° 104° (ESE) 06:22:31 437.200
XW-2D 25 Oct 06:15:48 06:19:36 79° 104° (ESE) 06:23:29 145.860 - 145.880
CUTE 1.7 + AOD 2 25 Oct 06:16:41 06:19:02 14° 112° (ESE) 06:21:23 437.475
XW-2B 25 Oct 06:29:27 06:33:14 70° 281° (W) 06:37:06 145.730 - 145.750
CUBEBUG 2 25 Oct 06:30:56 06:31:47 11° 113° (ESE) 06:32:38 437.445
HO-68 25 Oct 06:37:51 06:44:33 44° 112° (ESE) 06:51:18 435.675
KKS-1 25 Oct 06:42:34 06:46:39 35° 252° (WSW) 06:50:39 437.445
O/OREOS (USA 219) 25 Oct 06:52:06 06:54:46 16° 81° (E) 06:57:26 437.305
XW-2C 25 Oct 06:53:26 06:56:51 31° 277° (W) 07:00:19 145.795 - 145.815
UWE-3 25 Oct 06:58:09 06:59:51 12° 113° (ESE) 07:01:34 435.000/436.395/437.385
STARS 25 Oct 07:01:45 07:06:04 55° 254° (WSW) 07:10:21 437.465
STRAND 1 25 Oct 07:18:35 07:21:54 17° 86° (E) 07:25:11 437.568
YUBILEINY 25 Oct 07:24:42 07:31:43 26° 108° (ESE) 07:38:38 435.215
KAITUO 1B 25 Oct 07:24:59 07:27:34 18° 275° (W) 07:30:11 145.475/437.950
NUDT-PHONESAT 25 Oct 07:31:39 07:33:50 15° 274° (W) 07:36:02 437.300
AO-73 25 Oct 07:35:18 07:37:44 15° 112° (ESE) 07:40:11 145.935
BEESAT 3 25 Oct 07:36:13 07:38:52 17° 127° (SE) 07:41:32 437.485
CUTE-I 25 Oct 07:36:15 07:40:20 22° 275° (W) 07:44:29 437.470
SEEDS 25 Oct 07:48:00 07:52:13 74° 282° (WNW) 07:56:33 437.485
XW-2A 25 Oct 07:50:03 07:53:22 64° 103° (ESE) 07:56:46 145.665 - 145.685
CUTE 1.7 + AOD 2 25 Oct 07:50:27 07:54:27 39° 278° (W) 07:58:31 437.475
AAUSAT CUBESAT 2 25 Oct 07:57:34 08:01:40 57° 105° (ESE) 08:05:51 437.432
ZACube-1 25 Oct 07:58:50 08:02:34 33° 107° (ESE) 08:06:22 437.345
CUBEBUG 2 25 Oct 08:03:48 08:07:54 51° 280° (W) 08:12:01 437.445
AO-85 25 Oct 08:18:32 08:20:25 12° 135° (SE) 08:22:14 145.980
HO-68 25 Oct 08:26:11 08:32:18 30° 277° (W) 08:38:28 435.675
Oscar 11 25 Oct 08:26:48 08:30:55 44° 106° (ESE) 08:35:06 .
O/OREOS (USA 219) 25 Oct 08:29:34 08:33:47 38° 247° (WSW) 08:38:02 437.305
UWE-3 25 Oct 08:31:54 08:35:52 43° 279° (W) 08:39:53 435.000/436.395/437.385
DELFI C3 25 Oct 08:43:54 08:45:34 12° 112° (ESE) 08:47:13 145.870
STRAND 1 25 Oct 08:56:19 09:01:14 45° 253° (WSW) 09:06:05 437.568
BEESAT 2 25 Oct 09:07:25 09:11:13 52° 121° (ESE) 09:15:01 435.950
AO-73 25 Oct 09:09:52 09:13:37 34° 278° (W) 09:17:28 145.935
BEESAT 3 25 Oct 09:13:00 09:16:26 30° 293° (WNW) 09:19:51 437.485
FO-29 25 Oct 09:15:44 09:21:01 39° 83° (E) 09:25:53 435.910
YUBILEINY 25 Oct 09:20:22 09:28:55 58° 271° (W) 09:37:21 435.215
ZACube-1 25 Oct 09:36:33 09:38:55 15° 274° (W) 09:41:19 437.345
EO-88 25 Oct 09:48:44 09:52:08 37° 106° (ESE) 09:55:35 145.990 - 145.960
UNISAT 6 25 Oct 09:49:48 09:52:58 19° 85° (E) 09:56:09 437.425
AO-85 25 Oct 09:56:53 10:01:25 67° 296° (WNW) 10:05:34 145.980
TIGRISAT 25 Oct 10:02:48 10:06:27 24° 84° (E) 10:10:08 435.000
Oscar 11 25 Oct 10:05:24 10:07:13 12° 272° (W) 10:09:04 .
Max Valier Satellite 25 Oct 10:09:24 10:13:03 71° 281° (W) 10:16:47 145.860
DELFI C3 25 Oct 10:16:04 10:19:52 40° 279° (W) 10:23:43 145.870
RS-15 25 Oct 10:23:34 10:31:01 21° 78° (ENE) 10:38:24 29.354- 29.394
LO-87 25 Oct 10:25:07 10:26:14 11° 112° (ESE) 10:27:22 145.935 - 145.965
PRISM 25 Oct 11:00:49 11:04:50 48° 80° (E) 11:08:46 437.425
FO-29 25 Oct 11:01:32 11:05:45 21° 245° (WSW) 11:09:42 435.910
ESTCUBE 1 25 Oct 11:12:26 11:16:37 38° 108° (ESE) 11:20:52 437.505/2401.250
AIST 2D 25 Oct 11:16:17 11:18:27 15° 86° (E) 11:20:36 435.315
UNISAT 6 25 Oct 11:25:41 11:29:40 32° 252° (WSW) 11:33:41 437.425
TIGRISAT 25 Oct 11:39:21 11:43:01 25° 251° (WSW) 11:46:42 435.000
NANOSAT C BR1 25 Oct 11:48:33 11:50:11 12° 87° (E) 11:51:48 145.865
QB50P2 25 Oct 11:49:30 11:52:13 16° 86° (E) 11:54:55 145.880/145.840
LO-87 25 Oct 11:56:00 11:59:16 33° 278° (W) 12:02:34 145.935 - 145.965
DUCHIFAT 1 25 Oct 11:56:10 11:58:05 13° 87° (E) 12:00:01 145.980
VELOX 1 25 Oct 12:17:01 12:20:57 31° 109° (ESE) 12:24:56 145.980
SPROUT 25 Oct 12:29:45 12:33:59 67° 104° (ESE) 12:38:16 437.525
RS-15 25 Oct 12:31:05 12:42:01 80° 241° (WSW) 12:53:02 29.354- 29.394
PRISM 25 Oct 12:38:26 12:39:36 11° 246° (WSW) 12:40:46 437.425
AIST 2D 25 Oct 12:48:38 12:51:34 23° 252° (WSW) 12:54:28 435.315
ESTCUBE 1 25 Oct 12:50:41 12:53:30 16° 274° (W) 12:56:21 437.505/2401.250
EO-79 25 Oct 12:56:56 13:01:14 80° 256° (WSW) 13:05:29 145.935-145.965
50 SAT 25 Oct 12:59:13 13:01:39 19° 108° (ESE) 13:04:06 437.505
POLYITAN 1 25 Oct 13:03:07 13:07:23 67° 255° (WSW) 13:11:38 437.675
DX 1 25 Oct 13:07:38 13:11:20 27° 110° (ESE) 13:15:03 434.975-435.025
Oscar 19 25 Oct 13:10:11 13:12:15 12° 88° (E) 13:14:19 437.125/150
BUGSAT 1 25 Oct 13:17:55 13:21:30 28° 83° (E) 13:25:04 437.445
UKube-1 25 Oct 13:21:21 13:24:49 23° 110° (ESE) 13:28:17 .
NO-84 25 Oct 13:21:38 13:24:32 76° 52° (NE) 13:27:25 435.350 FM
NANOSAT C BR1 25 Oct 13:21:58 13:26:02 44° 254° (WSW) 13:30:05 145.865
QB50P2 25 Oct 13:24:10 13:28:01 33° 252° (WSW) 13:31:51 145.880/145.840
DUCHIFAT 1 25 Oct 13:29:52 13:33:52 41° 254° (WSW) 13:37:51 145.980
M-CUBED/EXP-1 PRIME 25 Oct 13:40:06 13:40:43 10° 85° (E) 13:41:18 437.505
VELOX 1 25 Oct 13:54:11 13:57:22 19° 275° (W) 14:00:36 145.980
Gurwin Techsat 1B 25 Oct 14:19:00 14:24:08 45° 81° (E) 14:29:13 435.225
50 SAT 25 Oct 14:31:48 14:33:49 15° 275° (W) 14:35:53 437.505
DX 1 25 Oct 14:44:00 14:47:25 22° 276° (W) 14:50:51 434.975-435.025
Oscar 19 25 Oct 14:46:42 14:51:55 63° 254° (WSW) 14:57:03 437.125/150
RS-15 25 Oct 14:48:37 14:56:21 21° 216° (SW) 15:04:14 29.354- 29.394
ITUPSAT 1 25 Oct 14:49:45 14:53:47 28° 110° (ESE) 14:57:50 437.325
BUGSAT 1 25 Oct 14:53:48 14:56:36 18° 249° (WSW) 14:59:25 437.445
UKube-1 25 Oct 14:57:07 15:00:40 24° 277° (W) 15:04:15 .
BEESAT 25 Oct 15:01:21 15:05:45 38° 108° (ESE) 15:10:11 436.000
MOZHAYETS 4 25 Oct 15:09:08 15:13:34 51° 106° (ESE) 15:18:04
M-CUBED/EXP-1 PRIME 25 Oct 15:11:24 15:15:26 46° 249° (WSW) 15:19:08 437.505
ITAMSAT 1 25 Oct 15:31:51 15:35:15 17° 86° (E) 15:38:36 435.822/435.867
CUBESAT XI-V 25 Oct 15:35:00 15:38:25 20° 111° (ESE) 15:41:53 437.345
Gurwin Techsat 1B 25 Oct 15:59:57 16:03:40 19° 246° (WSW) 16:07:22 435.225
AO-7 25 Oct 16:01:34 16:09:44 52° 78° (ENE) 16:17:46 .
JUGNU 25 Oct 16:22:13 16:26:07 18° 10° (N) 16:30:02 437.505
ITUPSAT 1 25 Oct 16:27:37 16:31:30 25° 276° (W) 16:35:25 437.325
BEESAT 25 Oct 16:40:23 16:43:36 18° 274° (W) 16:46:49 436.000
MOZHAYETS 4 25 Oct 16:49:15 16:50:57 12° 272° (W) 16:52:40
SO-50 25 Oct 17:04:45 17:09:10 38° 67° (ENE) 17:13:39 436.795
O/OREOS (USA 219) 25 Oct 17:05:25 17:08:17 16° 119° (ESE) 17:11:09 437.305
ITAMSAT 1 25 Oct 17:09:53 17:14:51 45° 252° (WSW) 17:19:47 435.822/435.867
CUBESAT XI-V 25 Oct 17:11:16 17:15:29 33° 277° (W) 17:19:47 437.345
DOVE 4 25 Oct 17:29:48 17:33:39 31° 83° (E) 17:37:22 437.250
KKS-1 25 Oct 17:35:37 17:40:04 65° 281° (WNW) 17:44:34 437.445
STARS 25 Oct 17:53:32 17:57:57 75° 104° (ESE) 18:02:23 437.465
LilacSat-2 25 Oct 17:54:02 17:55:36 12° 87° (E) 17:57:08 437.200
XW-2D 25 Oct 17:54:31 17:55:49 11° 87° (E) 17:57:06 145.860 - 145.880
AO-7 25 Oct 17:54:57 18:02:03 32° 242° (WSW) 18:09:05 .
XW-2B 25 Oct 18:07:03 18:09:33 16° 86° (E) 18:12:02 145.730 - 145.750
JUGNU 25 Oct 18:10:03 18:14:29 22° 359° (N) 18:18:57 437.505
